Lapse_Rate
7.1 7.0 7.0 7.0 7.0 7.0 6.8 6.8 6.7 6.5 6.4 6.4 6.5 6.4 6.2 6.1 6.1 6.0 6.0 6.0 6.0 6.0 6.0 5.9 5.8 5.9 5.8 5.7 5.6 5.5 5.3 5.2 5.2 5.2 5.0 4.7 4.4 4.3 4.2 4.0 3.3 3.3 2.8 4.5
7.2 7.1 7.1 7.2 7.2 7.1 7.0 7.0 6.8 6.7 6.6 6.3 6.4 6.3 6.2 6.0 6.0 6.0 6.0 6.0 6.0 6.0 5.9 5.9 5.9 5.8 5.8 5.6 5.4 5.2 4.9 4.6 4.7 4.8 4.5 4.5 4.6 4.6 4.4 3.7 3.4 3.4 2.4 5.5
7.3 7.3 7.2 7.2 7.2 7.3 7.3 7.2 6.9 6.8 6.8 6.6 6.4 6.3 6.2 6.2 6.1 6.1 6.1 6.0 6.0 5.9 5.8 5.7 5.6 5.6 5.4 5.3 5.1 4.9 4.6 4.7 4.7 4.9 4.8 4.5 4.4 4.5 4.0 3.6 3.4 3.7 4.5 5.5
7.3 7.4 7.4 7.4 7.2 7.1 7.1 7.1 7.1 7.0 6.9 6.8 6.7 6.6 6.4 6.3 6.2 6.2 6.1 6.1 6.1 6.1 6.1 6.1 5.9 5.7 5.4 5.3 5.1 4.8 4.4 4.4 4.6 4.9 4.8 4.3 4.3 4.6 4.1 3.5 4.1 3.4 5.2 4.9
7.2 7.2 7.3 7.3 7.3 7.1 7.0 6.9 6.9 6.9 6.7 6.6 6.6 6.6 6.5 6.4 6.3 6.3 6.2 6.1 6.0 6.0 5.8 5.7 5.5 5.4 5.2 5.1 5.0 4.6 4.3 4.4 4.3 5.6 5.0 4.8 5.2 5.7 4.8 4.4 4.4 3.9 4.7 5.8
7.1 7.1 7.1 7.1 7.1 7.1 6.9 6.7 6.6 6.6 6.5 6.5 6.4 6.2 6.2 6.2 6.3 6.4 6.3 6.2 6.2 6.0 5.8 5.7 5.6 5.5 5.3 4.9 4.7 4.3 3.8 3.8 3.6 5.0 4.8 4.9 5.2 6.1 5.7 5.7 5.8 5.6 5.0 6.1
6.8 6.8 6.8 6.9 6.8 6.9 6.9 6.6 6.6 6.5 6.5 6.4 6.2 6.2 6.1 5.9 5.7 5.6 5.6 5.7 5.7 5.6 5.6 5.5 5.6 5.8 5.8 5.5 5.3 5.0 4.3 3.8 3.5 4.2 4.6 3.7 6.3 6.1 5.8 5.7 6.0 5.5 5.6 5.7
6.5 6.6 6.7 6.6 6.6 6.6 6.9 6.7 6.5 6.6 6.5 6.6 6.6 6.2 6.3 6.0 6.0 5.7 5.8 5.6 5.4 5.1 5.2 5.0 5.3 5.8 5.7 5.9 5.5 5.4 4.9 3.8 3.4 3.5 3.4 5.2 6.1 5.8 5.5 5.3 6.0 5.8 5.7 5.7
6.1 6.3 6.3 6.4 6.5 6.2 6.1 6.5 6.3 6.3 6.3 6.5 6.5 6.5 6.4 6.2 6.1 6.0 6.2 6.0 5.7 5.5 5.5 5.1 4.8 5.1 4.9 5.0 5.5 5.5 4.9 4.1 3.5 3.0 3.2 3.5 6.1 5.9 5.3 4.6 5.1 5.6 5.5 5.5
5.9 5.9 5.9 6.1 6.0 5.9 5.9 5.7 6.1 6.2 6.1 6.2 6.1 6.2 6.4 6.4 6.4 6.5 6.3 6.0 5.9 5.8 5.6 5.1 4.8 5.1 5.1 5.1 5.2 5.5 4.9 4.1 4.0 3.1 2.3 3.3 5.3 4.8 4.6 4.3 4.8 4.7 4.9 4.9
5.7 5.7 5.6 5.7 5.9 6.1 6.1 5.7 5.6 5.6 5.9 6.1 6.0 6.0 6.1 6.4 6.3 6.1 6.3 6.0 6.4 5.7 5.6 5.3 5.5 5.0 5.2 5.0 5.0 5.5 5.3 5.2 4.9 3.7 2.6 3.8 5.4 5.3 5.1 4.6 4.3 4.0 3.9 4.1
5.5 5.6 5.4 5.5 5.4 5.6 6.0 6.1 5.8 5.7 5.6 5.9 5.9 6.0 5.9 5.9 6.0 6.0 5.9 6.0 6.3 5.2 5.4 5.3 4.7 4.8 4.6 5.2 4.7 5.6 4.9 5.7 5.7 5.7 5.6 6.0 5.5 5.3 5.2 4.7 4.4 4.2 4.4 4.2
5.4 5.6 5.3 5.2 5.3 5.4 5.4 5.7 5.7 5.7 5.7 6.0 6.0 5.9 6.2 6.0 6.1 5.7 5.9 6.1 6.0 6.5 5.7 5.4 5.0 4.2 4.5 4.4 4.6 5.2 4.8 5.1 5.1 5.5 5.3 5.4 5.0 4.8 4.8 4.5 4.2 3.8 4.0 4.4
5.3 5.4 5.2 5.2 5.1 5.0 5.3 5.5 5.4 5.3 5.3 5.5 6.2 5.9 5.9 6.0 5.7 5.4 5.8 5.8 6.0 6.3 6.0 5.1 4.6 4.4 4.2 4.0 4.3 4.1 4.4 4.9 6.4 4.9 5.3 5.1 4.7 4.8 4.8 4.7 4.4 4.2 4.2 4.2
5.0 5.0 5.0 5.1 5.1 5.3 4.8 5.1 5.3 5.0 5.3 5.0 5.7 5.8 5.6 5.7 6.2 6.4 6.4 6.6 6.2 5.9 5.7 4.9 4.5 3.8 4.0 3.7 3.1 2.9 4.6 5.9 5.7 5.5 5.6 4.5 4.5 4.2 4.2 4.4 4.3 4.2 4.3 4.4
4.6 4.5 4.8 4.7 4.2 4.8 4.8 4.6 5.1 5.3 4.7 4.6 4.7 5.2 6.0 5.7 5.9 6.5 6.9 6.3 5.8 5.5 5.2 4.5 3.7 4.0 4.4 3.7 3.0 3.6 5.6 5.2 6.2 5.3 5.0 4.3 3.8 3.6 4.0 4.1 4.2 4.5 4.4 4.6
4.5 4.4 4.3 4.5 4.6 4.3 4.3 4.3 4.4 4.6 4.7 4.5 4.3 4.4 4.5 5.1 6.1 6.6 6.5 6.3 6.2 5.9 5.0 4.5 4.4 4.4 4.3 4.0 3.4 5.7 5.5 5.4 5.4 5.4 5.2 5.0 4.9 4.4 4.2 4.5 4.9 5.0 4.9 4.7
4.4 4.6 4.6 4.5 4.4 4.4 4.5 4.8 4.6 4.3 4.3 3.8 3.7 4.3 4.2 4.5 4.7 5.3 6.0 5.8 5.5 5.3 5.4 5.1 5.3 4.8 4.1 3.5 5.8 6.4 6.3 6.0 5.5 5.3 4.8 4.7 4.8 4.8 4.4 4.4 4.4 4.5 4.8 5.0
4.5 4.5 4.7 4.9 4.9 4.8 4.8 4.8 4.9 4.7 4.5 4.3 4.0 4.0 3.9 4.4 4.8 5.2 5.3 5.3 5.1 5.1 4.7 5.0 5.0 4.9 4.0 5.6 5.5 5.9 5.6 5.3 5.1 5.1 4.9 4.7 5.0 5.3 5.4 5.5 5.5 5.2 5.2 5.2
4.5 4.6 4.7 4.9 5.0 4.9 4.7 4.7 4.8 4.5 4.6 4.3 4.7 5.2 4.9 5.2 5.0 4.7 4.8 4.8 4.5 4.7 4.5 4.5 4.4 4.8 5.6 5.7 5.5 5.6 5.7 5.6 5.3 5.0 5.0 5.0 5.1 5.4 5.6 5.3 5.0 4.9 5.0 5.1
4.5 4.7 4.8 4.7 4.7 4.6 4.6 4.7 4.4 4.4 4.2 4.3 5.4 5.4 5.4 5.0 4.8 4.7 4.8 4.8 4.9 4.7 4.7 4.5 4.6 4.7 5.2 5.5 5.6 5.6 5.8 5.8 5.8 6.0 6.1 5.7 5.7 5.4 5.1 5.1 5.4 5.5 5.4 5.5
5.3 5.2 5.1 5.1 5.1 4.9 4.7 4.6 4.6 4.4 4.7 5.0 5.5 5.6 5.6 5.3 5.1 5.1 5.1 5.3 5.4 5.4 5.2 4.9 4.8 5.1 5.4 5.4 5.4 5.4 5.5 5.7 5.8 5.8 5.8 5.9 5.8 5.2 5.2 5.5 5.9 6.1 6.3 6.3
5.5 5.7 5.7 5.3 5.3 5.3 5.0 5.1 4.7 4.9 5.3 5.9 5.8 5.6 5.6 5.6 5.5 5.5 5.8 5.8 5.6 5.4 5.3 5.1 5.2 5.4 5.5 5.7 5.6 5.7 5.9 5.6 5.2 5.3 5.8 6.1 6.1 6.6 6.8 6.8 7.1 7.4 7.5 7.5
6.6 6.3 6.5 6.1 5.9 5.5 5.5 5.4 5.2 5.5 6.2 6.3 5.9 5.7 5.6 5.6 6.0 5.9 5.9 6.3 6.0 6.1 5.9 5.9 6.3 6.3 6.3 6.2 5.9 6.1 5.8 5.7 5.6 5.8 6.4 6.8 7.1 7.3 7.4 7.4 7.6 7.6 7.6 7.6
7.7 7.5 7.5 6.6 6.0 5.8 5.7 5.7 5.6 5.6 5.9 6.3 6.3 6.2 6.0 6.0 5.8 6.1 6.3 6.5 6.5 6.4 6.9 6.9 7.4 7.4 7.0 6.5 6.4 6.6 7.0 7.0 7.0 6.9 6.9 7.0 7.1 7.2 7.2 7.4 7.6 7.6 7.7 7.4
8.3 8.3 7.8 6.8 6.1 5.9 5.9 6.4 6.4 6.5 6.7 6.8 6.8 6.7 6.7 6.6 6.7 6.5 6.0 6.4 6.4 6.9 7.3 7.3 7.2 6.9 6.6 6.4 6.6 6.8 7.0 7.2 7.2 7.3 7.5 7.6 7.5 7.4 7.5 7.5 7.7 7.9 7.8 7.7
8.5 8.4 8.7 7.9 7.3 7.2 7.3 7.3 7.3 7.2 7.3 7.3 7.5 7.3 7.2 7.4 6.9 6.0 6.2 6.7 6.9 6.9 6.9 6.9 6.9 7.1 7.2 7.3 7.4 7.3 7.5 7.7 7.7 7.7 7.7 7.8 7.9 7.9 8.0 8.0 8.1 8.3 8.0 7.9
Wind_Speed
23 25 25 22 14 10 4 2 3 3 3 4 3 3 4 2 3 2 1 0 1 2 4 2 1 1 5 1 2 0 1 4 3 5 1 3 4 5 4 4 5 3 4 7
21 23 25 24 18 8 2 3 1 2 4 3 2 2 2 1 3 3 3 3 1 1 1 1 2 3 3 4 2 2 3 1 4 3 3 3 3 4 4 3 3 5 5 6
22 23 24 24 20 5 2 3 2 4 4 2 6 4 3 2 1 2 1 2 0 2 2 1 3 4 3 4 1 2 2 2 5 5 4 4 4 6 7 6 3 3 8 7
22 24 26 27 23 5 2 3 1 3 0 2 3 4 6 4 4 2 3 1 4 3 3 4 4 4 3 2 5 1 3 3 4 7 10 8 12 13 11 13 12 8 5 9
19 22 25 30 31 3 4 2 2 3 0 1 2 1 4 6 3 6 4 4 5 5 4 2 3 5 4 5 1 4 1 3 3 6 8 8 12 14 15 19 20 20 21 28
16 20 23 27 32 10 3 2 1 3 3 0 3 3 3 4 4 5 4 6 2 4 6 1 1 2 1 5 8 6 5 1 3 5 6 9 7 7 13 7 6 20 15 20
14 16 20 24 27 18 3 1 2 3 2 1 3 3 2 3 2 1 2 2 1 1 1 3 1 1 3 4 6 6 6 3 2 4 6 4 6 3 6 12 10 16 9 6
12 14 16 21 23 20 4 1 2 2 2 3 0 3 3 2 2 3 4 2 2 2 3 4 5 3 2 1 2 3 5 4 3 2 2 9 7 2 2 4 7 12 17 15
11 11 12 16 19 21 3 2 1 2 3 4 3 4 5 4 3 0 3 1 2 3 2 2 2 4 4 2 1 5 3 4 3 1 3 5 2 2 3 2 6 4 2 4
11 11 9 10 13 16 6 2 4 2 1 3 0 4 4 4 3 3 3 3 1 3 2 3 4 4 3 3 6 5 2 2 7 7 5 8 10 7 3 1 5 2 2 1
13 9 9 7 8 10 6 2 8 2 1 5 3 3 4 0 2 4 3 3 0 2 4 4 4 4 5 3 6 7 8 8 5 4 5 10 7 4 6 5 4 3 5 6
16 10 7 5 6 6 3 1 3 4 1 5 2 5 4 3 4 4 5 4 4 5 3 3 2 4 3 5 4 4 3 7 6 12 8 3 7 6 7 4 4 6 5 8
9 8 5 5 5 4 2 1 2 2 2 4 2 4 5 3 7 4 3 3 5 4 4 4 3 5 4 5 6 5 4 7 6 1 7 14 8 8 6 7 8 8 5 5
1 0 2 3 5 5 5 2 3 2 0 3 5 2 4 4 3 7 7 1 3 3 2 3 3 3 3 4 5 4 5 3 9 9 12 12 12 7 8 7 2 4 6 7
3 2 2 3 4 5 6 7 7 7 4 3 5 8 8 6 6 8 5 5 4 1 1 3 3 2 1 3 3 12 9 20 15 18 14 12 16 14 11 9 10 11 8 7
2 2 1 2 4 3 1 2 0 13 4 2 3 4 3 5 3 6 4 4 3 3 3 3 3 3 3 4 9 8 14 13 18 22 17 13 14 9 14 16 19 12 9 9
8 6 3 2 4 3 3 2 1 5 6 2 3 3 2 0 2 2 1 0 2 3 2 4 4 4 5 3 17 12 11 12 16 20 20 20 16 14 14 9 4 4 4 4
9 6 7 8 6 5 4 5 12 9 2 2 3 3 3 4 2 2 1 1 0 2 2 1 2 1 3 7 10 6 12 15 14 15 10 9 3 4 4 3 4 5 5 5
9 8 10 4 3 2 3 3 3 10 3 2 3 3 3 2 1 2 1 2 3 2 3 3 5 3 8 6 6 8 8 6 7 5 3 2 7 8 9 7 7 7 8 9
6 2 1 2 3 4 4 1 2 4 4 3 3 2 3 3 2 3 2 3 3 3 5 4 4 8 14 9 8 6 5 6 7 3 5 7 6 6 6 6 5 5 6 7
1 2 3 3 1 1 3 3 4 3 3 4 3 7 6 3 3 4 4 3 3 3 4 6 3 4 4 6 6 6 8 9 10 8 5 5 3 4 5 6 9 9 11 9
3 2 4 2 2 2 3 3 3 5 5 3 3 3 3 2 1 3 3 3 3 6 4 3 3 3 2 6 7 7 8 9 9 8 8 10 10 8 7 7 10 10 10 9
2 2 2 2 2 5 6 6 3 2 2 1 1 1 1 0 2 3 3 6 5 2 3 3 4 2 4 5 5 4 8 10 8 10 11 9 9 8 8 11 11 12 11 13
3 5 5 5 4 4 4 4 3 2 1 2 1 0 1 0 2 2 4 5 2 2 3 5 1 2 4 2 4 10 9 9 10 12 12 9 9 11 11 12 12 10 13 15
4 4 5 6 3 2 3 1 2 2 2 1 1 1 2 2 3 3 3 6 3 3 4 2 4 7 8 9 10 10 9 9 9 11 9 9 9 9 12 13 12 12 13 13
4 4 2 3 3 3 1 2 2 2 3 1 1 2 1 5 3 3 6 4 5 4 3 3 3 6 8 9 11 10 11 13 12 11 10 10 10 12 14 12 10 11 9 12
5 5 3 3 2 5 4 3 4 4 4 4 2 5 9 2 1 3 3 5 5 4 4 4 5 10 14 14 11 11 12 13 13 13 13 13 14 14 11 13 16 11 11 12
Wind_Direction
12 8 8 9 7 355 52 83 47 299 38 53 46 98 131 169 173 249 249 352 58 117 159 138 116 196 207 201 124 111 188 152 250 234 147 141 179 178 147 125 256 219 151 271
12 10 6 7 5 19 117 103 183 345 75 96 53 192 87 101 162 189 199 167 228 247 122 142 187 191 168 160 156 187 165 268 336 320 358 354 215 222 197 154 103 215 145 262
10 7 4 4 7 6 82 85 56 336 46 140 125 144 154 140 287 162 155 147 198 179 214 212 182 180 213 171 109 135 68 234 203 209 216 141 214 209 205 173 155 203 229 283
12 6 1 358 3 20 93 35 228 195 278 353 112 107 164 145 179 237 207 256 230 193 179 183 211 192 156 174 173 154 125 239 254 259 261 253 256 242 197 206 206 195 263 237
13 11 7 360 358 43 82 88 97 6 124 316 119 89 198 176 163 151 214 201 196 205 212 189 241 165 191 192 99 172 176 258 305 284 262 254 260 246 232 230 231 240 253 270
14 12 12 12 9 18 82 332 27 100 303 293 87 228 194 217 134 214 160 191 142 215 236 241 205 185 155 164 153 182 160 195 13 269 325 306 285 238 210 210 205 220 235 246
7 12 15 15 20 32 110 246 109 86 274 146 208 184 136 178 211 332 337 120 140 235 7 321 293 296 252 198 191 169 162 167 183 275 333 328 243 238 213 204 229 218 251 242
354 1 10 14 14 19 78 19 82 112 210 207 303 141 160 136 130 198 194 192 154 118 38 12 343 340 341 216 65 125 174 152 263 234 230 288 292 106 188 190 288 212 226 243
336 348 359 10 12 11 53 45 134 83 116 244 222 165 175 186 201 356 164 115 131 94 120 109 234 250 253 243 274 18 73 99 151 290 212 252 263 115 103 95 280 334 186 145
315 331 339 354 8 9 11 339 20 92 125 272 207 207 187 175 156 168 151 179 119 68 127 178 202 241 172 205 188 169 141 212 220 230 262 279 253 237 163 161 252 169 54 333
284 297 318 328 351 6 32 311 12 53 266 272 224 221 205 90 147 166 184 82 239 98 176 182 225 207 228 208 169 179 173 165 199 185 214 259 156 106 180 212 226 230 263 257
270 259 280 294 321 337 30 126 28 6 230 263 290 261 255 213 200 150 192 191 163 186 157 232 213 239 212 188 235 137 220 198 186 193 212 271 206 217 223 208 226 262 229 228
255 246 248 273 283 278 241 198 108 61 307 285 331 268 282 211 208 194 166 266 201 196 180 180 220 227 140 193 235 203 229 204 232 132 225 245 238 265 257 248 252 256 201 198
322 270 269 275 278 278 221 184 199 142 215 275 280 304 300 274 169 189 219 285 6 62 81 198 209 198 173 231 253 187 205 316 265 265 280 282 268 264 287 303 237 219 229 219
308 286 252 256 267 258 257 241 219 200 147 258 291 307 268 231 209 220 205 208 199 191 272 228 224 237 264 231 247 256 243 255 260 268 275 272 284 292 292 282 275 268 233 235
347 323 288 268 264 257 159 285 141 208 173 258 270 265 287 18 96 159 187 202 199 204 185 210 222 221 193 244 264 245 238 231 246 266 279 278 285 300 299 285 284 254 215 223
339 331 314 277 269 218 215 223 198 337 172 224 271 270 253 159 89 60 57 280 227 190 219 225 230 196 202 252 257 253 272 276 274 274 287 289 286 284 291 295 304 305 273 265
318 300 298 301 291 283 298 267 256 184 237 244 247 251 283 151 145 174 117 162 10 227 245 225 202 221 210 251 258 246 248 258 262 267 264 267 289 348 1 347 11 12 342 330
288 305 306 271 203 230 246 166 195 209 204 248 224 214 239 156 120 105 155 171 229 223 229 215 167 190 226 238 228 250 257 241 263 275 243 19 51 46 32 27 17 23 5 350
274 235 279 253 210 212 213 107 199 189 198 234 248 190 249 127 159 182 207 193 221 238 217 161 222 249 262 270 260 267 293 299 281 210 47 50 43 30 13 19 343 299 273 268
225 231 228 240 227 235 201 235 196 179 223 197 218 204 220 203 159 196 205 211 215 240 231 187 224 253 256 352 62 59 82 79 77 95 102 73 24 311 280 279 273 267 260 257
179 315 304 319 193 218 231 223 237 199 221 203 190 187 181 213 173 181 222 229 199 244 147 218 255 252 98 96 83 63 54 41 22 358 335 290 267 262 259 270 294 283 274 266
103 220 207 167 259 212 207 216 244 233 185 161 147 140 130 131 193 229 212 227 228 127 203 229 230 309 125 119 82 106 185 200 213 233 251 264 269 261 250 273 272 269 272 272
201 196 215 194 225 231 209 182 193 244 46 61 100 107 216 285 242 235 244 241 151 233 233 235 325 53 100 91 231 241 234 232 249 262 275 273 270 273 261 254 262 272 275 280
217 212 221 212 219 233 212 167 94 258 132 67 327 262 222 257 253 232 299 328 259 224 236 178 205 207 206 227 245 233 248 272 259 257 259 263 262 261 272 268 266 266 269 274
201 230 234 200 106 279 295 186 206 214 141 75 180 243 87 248 184 96 229 139 232 259 231 229 214 233 242 249 256 251 265 271 268 258 246 251 260 260 263 269 254 259 256 265
198 203 200 173 163 195 205 161 209 171 149 199 153 174 220 338 253 251 186 212 244 244 281 268 248 266 278 281 277 274 266 268 269 263 261 257 259 264 267 264 271 271 264 255